SCP
0 0 0 0 0 0 0 0 0 0 0 0 0 0 0 0 0 0 0 0 0 0 0 0 0 0 0 0 0 0 0 0 0 0 0 0 0 0 0 0 0 0 0 0
0 0 0 0 0 0 0 0 0 0 0 0 0 0 0 0 0 0 0 0 0 0 0 0 0 0 0 -0 0 0 0 0 0 0 0 0 0 0 0 0 0 0 0 0
0 0 0 0 0 0 0 0 0 0 0 0 0 0 0 0 0 0 0 0 0 0 0 0 0 0 0 -0 -0 0 0 0 0 0 0 0 0 0 0 0 0 0 0 0
0 0 0 0 0 0 0 0 0 0 0 0 0 0 0 0 0 0 0 0 0 0 0 0 0 0 0 -0 -0 0 0 0 0 0 0 0 0 0 0 0 0 0 0 0
0 0 0 0 0 0 0 0 0 0 0 0 0 0 0 0 0 0 0 0 0 0 0 0 0 0 0 0 0 0 0 0 0 0 0 0 0 0 0 0 0 0 0 0
0 0 0 0 0 0 0 0 0 0 0 0 0 0 0 0 0 0 0 -0 0 0 0 0 0 0 0 0 0 0 0 0 0 0 0 0 0 0 0 0 0 0 0 0
0 0 0 0 0 0 0 0 0 0 0 0 0 0 0 0 0 0 0 0 0 0 0 0 0 0 0 0 0 0 0 0 0 0 0 0 0 0 0 0 0 0 0 0
0 0 0 0 0 0 0 0 0 0 0 0 0 0 0 0 0 0 0 0 0 0 0 0 0 0 0 0 0 0 0 -0 -0 0 0 0 0 0 0 0 0 0 0 0
0 0 0 0 0 0 0 0 0 0 0 0 0 0 0 0 0 0 0 0 0 0 0 0 0 0 0 0 0 0 -0 -0 -0 0 0 0 0 0 0 0 0 0 0 0
0 0 0 0 0 0 0 0 0 0 0 0 0 0 0 0 0 0 0 0 0 0 0 0 0 0 0 0 0 0 -0 -0 -0 0 0 0 0 0 0 0 0 0 0 0
0 0 0 0 0 0 0 0 0 0 0 0 0 0 0 0 0 0 0 0 0 0 0 -0 -0 -0 -0 0 0 -0 -0 -0 -0 0 0 0 0 0 0 0 0 0 0 0
0 0 0 0 0 0 0 0 0 0 0 0 0 0 0 0 0 0 0 0 0 0 0 0 -0 -0 -0 0 0 0 0 0 0 0 0 0 0 0 0 0 0 0 0 0
0 0 0 0 0 0 0 0 0 0 0 0 0 0 0 0 0 0 0 0 0 0 0 0 0 0 0 0 0 0 0 0 0 0 0 0 0 0 0 0 0 0 0 0
0 0 0 0 0 0 0 0 0 0 0 0 0 0 0 0 0 0 0 0 0 0 0 0 0 0 0 0 0 0 0 0 0 0 0 0 0 0 0 0 0 0 0 0
0 0 0 0 0 0 0 0 0 0 0 0 0 0 0 0 0 0 0 0 0 0 0 0 0 0 0 0 0 0 0 0 0 0 0 0 0 0 0 0 0 0 0 0
0 0 0 0 0 0 0 0 0 0 0 0 0 0 0 0 0 0 0 0 -0 -0 -0 0 0 0 0 0 0 0 0 0 0 0 0 0 0 0 0 0 0 0 0 0
0 0 0 0 0 0 0 0 0 0 0 0 0 0 0 0 0 0 0 -0 -0 -0 -0 -0 -0 0 0 0 0 0 0 0 0 0 0 0 0 0 0 0 0 0 0 0
0 0 0 0 0 0 0 0 0 0 0 0 0 0 0 0 0 0 0 -0 -0 -0 -0 -0 -0 0 0 0 0 0 0 0 0 0 0 0 0 0 0 0 0 0 0 0
0 0 0 0 0 0 0 0 0 0 0 0 0 0 0 0 0 0 0 -0 -0 -0 -0 -0 -0 0 0 0 0 0 0 0 0 0 0 0 0 0 0 0 0 0 0 0
0 0 0 0 0 0 0 0 -0 0 0 0 0 0 0 0 0 0 0 -0 -0 0 -0 -0 -0 0 0 0 0 0 0 0 0 0 0 0 0 0 0 0 0 0 0 0
0 0 0 0 0 0 0 0 0 0 0 0 0 0 0 0 0 0 0 0 0 0 0 0 0 0 0 0 0 0 0 0 0 0 0 0 0 0 0 0 0 0 0 0
0 0 0 0 0 0 0 0 0 0 0 0 0 0 0 0 0 0 0 0 0 0 0 0 0 0 0 0 0 0 0 0 0 0 0 0 0 0 0 0 0 0 0 0
0 0 0 0 0 0 0 0 0 0 0 0 0 0 0 0 0 0 0 0 0 0 0 0 0 0 0 0 0 0 0 0 0 0 0 0 0 0 0 0 0 0 0 0
0 0 0 0 0 0 0 0 0 0 0 0 0 0 0 0 0 0 0 0 0 0 0 0 0 0 0 0 0 0 0 0 0 0 0 0 0 0 0 0 0 0 0 0
0 0 0 0 0 0 0 0 0 0 0 0 0 0 0 0 0 0 0 0 0 0 0 0 0 0 0 0 0 0 0 0 0 0 0 0 0 0 0 0 0 0 0 0
0 0 0 0 0 0 0 0 0 0 0 0 0 0 0 0 0 0 0 0 0 0 0 0 0 0 0 0 0 0 0 0 0 0 0 0 0 0 0 0 0 0 0 0
Wind_Speed
3 4 2 3 3 3 4 3 1 1 1 2 2 1 1 1 2 3 4 4 4 4 2 2 4 5 5 5 5 5 5 4 4 3 2 2 1 1 1 1 2 2 2 3
4 0 3 4 3 3 3 3 1 1 1 2 2 1 1 0 2 3 5 5 5 3 2 2 4 4 5 5 6 5 5 5 4 3 2 2 2 1 0 1 2 2 2 3
4 3 3 4 2 2 2 3 3 2 2 3 3 3 2 1 1 0 1 3 4 6 5 4 4 4 5 5 6 6 5 5 4 4 3 3 3 2 2 2 2 2 2 2
1 2 3 3 3 4 2 1 3 2 3 1 2 1 3 1 0 1 2 2 3 4 4 4 4 5 5 4 4 5 5 4 4 4 4 3 2 1 1 1 1 2 2 2
2 2 4 4 3 5 3 3 4 4 3 2 2 2 5 0 3 4 4 3 3 3 5 5 4 5 4 4 4 5 5 4 4 4 4 4 2 1 0 1 2 2 3 3
2 1 2 3 2 4 5 6 6 5 4 1 2 3 5 5 7 6 4 4 3 3 4 3 3 4 4 4 4 5 5 4 3 4 4 4 3 2 1 1 1 2 2 2
0 1 1 3 5 3 5 6 3 2 1 3 2 2 8 6 6 7 8 6 4 4 4 4 4 4 5 5 5 5 6 4 4 4 3 3 3 2 2 1 0 1 2 2
2 2 4 4 5 6 5 6 6 5 4 2 1 5 6 3 2 4 5 6 5 5 4 5 5 5 5 5 5 6 6 5 4 4 3 2 2 2 1 1 1 1 1 2
5 3 1 3 3 8 6 4 4 5 2 1 3 5 5 1 3 5 6 6 6 5 5 4 4 4 5 5 5 6 6 5 4 4 3 2 2 2 1 1 1 0 1 1
6 3 2 4 4 2 5 7 4 5 5 2 3 4 5 5 7 7 7 8 7 5 5 4 4 4 4 4 4 5 5 5 4 4 3 2 2 1 1 1 1 1 2 2
4 4 1 3 5 7 5 3 4 3 3 5 3 7 7 10 11 12 11 9 9 8 6 5 4 4 5 5 5 5 5 4 4 3 3 3 2 2 2 2 1 1 1 2
4 5 2 4 3 5 6 7 7 5 4 3 3 8 4 7 9 10 10 8 8 7 6 5 5 5 5 5 5 5 4 4 4 3 3 3 2 2 2 2 2 1 2 2
7 5 3 2 2 2 3 5 5 4 4 4 4 7 3 2 6 7 9 9 8 8 7 6 5 5 5 5 5 4 4 4 3 4 4 3 3 2 2 2 2 2 2 3
6 4 6 7 7 6 5 5 6 6 4 5 7 7 4 4 7 8 9 9 9 8 8 7 6 5 5 5 5 5 4 4 4 4 4 4 3 2 2 2 2 2 2 3
5 3 4 5 4 4 5 7 9 8 8 8 8 8 9 10 12 11 10 10 9 9 9 9 8 6 6 5 5 5 4 4 5 5 4 3 2 2 3 3 3 3 3 3
4 3 2 2 2 4 4 7 10 8 6 6 4 8 6 4 5 7 10 12 12 11 11 10 9 8 8 7 6 5 5 4 5 5 4 3 3 3 3 3 3 3 3 3
5 5 3 2 2 1 5 8 10 7 7 9 10 10 4 6 12 15 15 15 15 14 12 12 11 10 9 8 8 7 6 5 5 5 4 3 3 3 2 3 3 3 2 3
7 6 4 2 1 5 9 4 6 8 7 8 7 6 10 11 11 9 10 15 14 13 13 12 11 9 8 7 6 6 6 6 6 5 4 4 4 3 3 3 3 2 1 2
4 7 5 3 2 6 8 4 5 6 7 8 9 6 5 4 5 2 8 12 13 14 11 11 10 9 8 8 8 8 6 6 6 5 5 4 4 4 3 3 2 1 1 1
5 5 6 4 4 5 8 3 3 4 5 6 8 8 8 9 5 8 9 11 10 9 9 9 9 8 9 8 8 9 8 7 7 6 6 5 5 5 4 3 2 1 1 1
3 3 4 5 4 9 9 3 4 5 9 4 7 9 12 11 9 5 9 10 10 10 10 11 11 10 10 9 9 9 8 8 7 5 5 4 4 4 4 3 2 2 2 1
8 6 6 6 4 10 5 5 8 9 3 2 5 8 10 7 3 5 9 11 11 10 9 11 11 9 8 10 10 9 8 7 5 5 5 4 4 4 3 4 2 2 2 2
7 8 8 10 9 6 3 7 5 2 3 3 5 6 8 6 5 5 7 9 10 11 11 10 10 9 7 8 10 10 8 6 6 6 5 4 3 3 3 4 3 2 2 2
4 2 4 4 8 6 6 5 5 4 4 3 4 5 8 7 7 7 7 8 8 9 10 9 10 10 8 8 8 8 7 7 7 6 5 4 4 3 2 2 3 3 3 3
4 5 3 5 7 6 5 4 4 2 2 2 3 4 7 8 7 8 8 9 9 8 8 9 10 11 10 8 7 6 7 8 7 6 5 4 4 4 3 3 3 4 5 5
5 7 7 7 7 5 5 3 2 3 3 4 4 4 4 7 8 8 7 7 8 8 8 9 9 9 8 8 7 6 7 8 8 6 5 4 4 3 3 3 2 5 6 8
Wind_Direction
71 80 143 180 170 147 137 126 129 249 247 133 157 171 261 183 153 190 200 202 217 228 242 190 166 155 147 144 143 143 139 137 126 110 107 100 80 32 19 6 9 20 26 29
63 172 203 157 143 116 119 123 110 340 62 121 117 24 306 184 181 198 198 203 207 204 189 172 157 154 156 156 154 152 152 154 152 136 130 131 127 104 25 337 358 12 18 18
152 215 175 150 145 137 151 162 172 170 75 61 84 4 337 326 48 81 170 198 194 195 192 181 160 157 154 157 162 161 158 158 152 133 111 87 61 40 19 0 346 342 355 12
201 232 169 156 180 153 194 194 151 133 108 60 111 183 284 268 250 227 213 189 189 185 174 169 163 161 163 160 147 143 149 150 147 141 135 134 133 144 250 285 311 330 351 3
220 193 166 176 192 153 156 92 86 89 96 62 50 131 276 183 213 224 216 201 189 176 164 163 169 168 148 137 137 134 135 135 136 135 135 127 125 150 277 353 346 345 347 356
232 237 183 171 127 127 117 82 62 51 65 39 224 154 255 219 206 201 195 187 173 155 144 139 129 120 114 116 120 124 127 123 122 122 123 132 138 141 109 30 351 338 337 341
260 268 204 135 106 87 105 100 78 50 44 246 227 194 244 235 206 188 182 178 168 155 145 139 131 129 129 129 131 131 129 123 123 121 120 131 142 145 153 178 269 323 335 332
157 238 204 171 155 157 162 142 153 169 191 251 218 231 254 273 190 154 151 154 152 150 149 146 145 141 138 137 136 134 133 129 129 127 122 111 121 125 143 162 167 253 271 286
173 222 202 159 144 137 141 163 162 127 124 148 262 281 301 108 131 143 145 148 160 160 153 146 137 137 138 138 142 145 139 131 132 132 122 111 112 110 112 96 88 342 303 317
159 173 194 145 99 49 138 142 120 126 145 210 271 262 238 202 190 176 171 174 172 161 152 143 138 138 136 136 131 131 134 136 132 128 130 124 123 113 98 80 60 21 350 2
152 142 153 156 184 172 131 140 132 126 159 158 216 259 224 198 187 183 186 181 173 169 166 156 145 138 130 126 127 129 131 128 127 130 124 113 102 87 80 67 34 15 8 15
159 126 171 225 225 169 161 172 155 158 198 179 181 264 273 203 186 178 177 172 168 165 160 151 143 135 130 133 135 136 138 137 139 133 121 115 98 84 74 54 21 22 24 20
148 127 103 28 5 160 183 178 168 137 122 157 179 263 324 158 162 170 166 163 160 156 152 146 143 145 146 144 143 143 145 145 137 128 122 109 95 88 72 49 31 34 40 34
126 132 164 189 208 183 190 186 167 148 161 193 220 249 282 192 179 175 170 164 160 162 161 158 159 161 158 151 148 146 146 143 135 125 120 116 113 108 93 67 52 46 52 52
128 173 216 232 216 179 198 195 181 190 193 190 223 224 237 209 193 183 170 160 160 167 170 172 171 169 163 155 151 148 147 144 136 127 123 126 119 105 89 73 62 57 58 55
139 172 182 273 220 202 226 219 199 210 204 213 233 250 244 180 150 159 170 171 177 182 182 179 175 171 172 169 164 156 154 152 140 133 135 130 117 104 93 84 73 67 58 50
156 151 141 258 300 76 254 222 197 203 201 183 207 230 173 166 184 188 186 185 188 187 183 181 181 181 178 176 169 165 162 149 139 139 139 136 130 118 111 101 85 73 62 57
147 140 137 154 118 232 244 251 199 203 221 205 214 214 188 195 196 191 185 187 191 186 182 182 179 176 173 166 162 153 145 146 146 146 148 149 141 135 124 107 97 85 76 72
141 137 128 137 198 277 290 256 185 184 249 215 209 217 189 115 93 230 204 194 193 187 180 177 174 168 162 162 159 147 147 149 151 160 166 167 159 151 142 134 132 124 104 78
74 103 120 134 168 236 252 257 178 131 268 238 192 191 154 130 154 232 199 184 180 170 162 158 152 149 158 163 154 151 158 161 176 183 180 173 165 162 165 169 164 156 139 131
110 103 140 161 204 256 252 251 124 156 239 237 186 179 165 180 199 199 160 169 166 160 157 154 154 161 168 161 156 159 166 184 190 176 168 169 174 175 174 165 161 154 142 115
171 163 177 152 187 251 241 151 178 214 236 194 180 177 180 193 156 136 155 159 156 152 151 155 158 163 161 161 161 166 183 191 170 159 163 174 181 185 168 159 160 151 142 128
194 188 183 187 209 234 224 214 236 217 222 212 188 186 173 166 165 154 156 157 160 159 158 158 157 155 159 167 168 174 188 168 155 156 168 177 174 175 168 167 169 162 159 163
248 169 159 242 266 261 260 253 255 223 226 228 193 170 161 163 162 154 153 156 158 158 160 156 153 157 168 175 179 182 170 158 155 163 173 171 170 180 183 182 180 178 188 196
216 161 180 252 273 295 285 248 243 232 218 182 150 162 165 154 156 159 160 164 165 160 159 159 163 167 173 173 180 177 162 155 159 168 174 176 183 186 191 200 206 204 213 201
194 176 179 224 232 211 255 278 227 196 200 177 149 138 156 161 160 158 162 165 162 160 157 160 165 167 170 170 178 177 168 163 161 169 180 184 187 191 193 202 248 245 233 238